Volver al catálogo

STARLINK-37655

ActivoComunicacionesSSO
NORAD 69142·PAYLOAD·🇺🇸 United States

Lanzado May 20, 2026 desde Vandenberg Space Force Base

Loading…

Próximos Pases (próximas 24 horas)

TLE

ActualizadoSource: CelesTrak SupGP

Época: Sep 15, 2026, 03:06 UTC

1 69142C 26110U   26258.12965278 -.00050665  00000+0 -15727-2 0  2580
2 69142  97.2849  93.3083 0001748  91.5213 352.5045 15.33465043    19

Sigue STARLINK-37655 en tiempo real con AllMySat

Download on the App Store